<?xml version="1.0" encoding="UTF-8" standalone="no" ?>
<gpx xmlns="http://www.topografix.com/GPX/1/1" xmlns:xsi="http://www.w3.org/2001/XMLSchema-instance" xsi:schemaLocation="http://www.topografix.com/GPX/1/1 http://www.topografix.com/GPX/1/1/gpx.xsd" version="1.1" creator="VisuGPX - https://www.visugpx.com">
  <metadata>
    <name>Brassy Lormes 24 km</name>
    <desc><![CDATA[Brassy - Lormes  Dist.24 km dev+ 470m
Parkin Eglise Brassy]]></desc>
  </metadata>
  <trk>
    <name><![CDATA[Brassy Lormes 24 km]]></name>
    <extensions>
      <line xmlns="http://www.topografix.com/GPX/gpx_style/0/2">
        <color>0000FF</color>
        <width>4</width>
      </line>
    </extensions>
    <trkseg>
      <trkpt lat="47.26168" lon="3.93688">
        <ele>409</ele>
        <time>2016-07-19T18:24:37.000Z</time>
      </trkpt>
      <trkpt lat="47.26176" lon="3.93687">
        <ele>409</ele>
        <time>2016-07-19T18:24:37.000Z</time>
      </trkpt>
      <trkpt lat="47.26178" lon="3.93677">
        <ele>410</ele>
        <time>2016-07-19T18:24:37.000Z</time>
      </trkpt>
      <trkpt lat="47.2618" lon="3.93667">
        <ele>410</ele>
        <time>2016-07-19T18:24:37.000Z</time>
      </trkpt>
      <trkpt lat="47.26174" lon="3.93654">
        <ele>410</ele>
        <time>2016-07-19T18:24:37.000Z</time>
      </trkpt>
      <trkpt lat="47.26179" lon="3.93644">
        <ele>410</ele>
        <time>2016-07-19T18:24:37.000Z</time>
      </trkpt>
      <trkpt lat="47.26181" lon="3.93634">
        <ele>411</ele>
        <time>2016-07-19T18:24:37.000Z</time>
      </trkpt>
      <trkpt lat="47.26179" lon="3.93644">
        <ele>410</ele>
        <time>2016-07-19T18:24:37.000Z</time>
      </trkpt>
      <trkpt lat="47.26174" lon="3.93654">
        <ele>410</ele>
        <time>2016-07-19T18:24:37.000Z</time>
      </trkpt>
      <trkpt lat="47.26169" lon="3.93663">
        <ele>410</ele>
        <time>2016-07-19T18:24:37.000Z</time>
      </trkpt>
      <trkpt lat="47.26165" lon="3.93673">
        <ele>410</ele>
        <time>2016-07-19T18:24:37.000Z</time>
      </trkpt>
      <trkpt lat="47.26164" lon="3.93683">
        <ele>409</ele>
        <time>2016-07-19T18:24:37.000Z</time>
      </trkpt>
      <trkpt lat="47.26198" lon="3.93606">
        <ele>411</ele>
        <time>2016-07-19T18:24:37.000Z</time>
      </trkpt>
      <trkpt lat="47.26199" lon="3.93412">
        <ele>417</ele>
        <time>2016-07-19T18:24:37.000Z</time>
      </trkpt>
      <trkpt lat="47.26203" lon="3.93385">
        <ele>418</ele>
        <time>2016-07-19T18:24:37.000Z</time>
      </trkpt>
      <trkpt lat="47.26168" lon="3.93354">
        <ele>419</ele>
        <time>2016-07-19T18:24:37.000Z</time>
      </trkpt>
      <trkpt lat="47.26169" lon="3.9309">
        <ele>433</ele>
        <time>2016-07-19T18:24:37.000Z</time>
      </trkpt>
      <trkpt lat="47.26166" lon="3.92832">
        <ele>436</ele>
        <time>2016-07-19T18:24:37.000Z</time>
      </trkpt>
      <trkpt lat="47.26196" lon="3.92635">
        <ele>426</ele>
        <time>2016-07-19T18:24:37.000Z</time>
      </trkpt>
      <trkpt lat="47.26201" lon="3.92401">
        <ele>412</ele>
        <time>2016-07-19T18:24:37.000Z</time>
      </trkpt>
      <trkpt lat="47.26147" lon="3.92244">
        <ele>400</ele>
        <time>2016-07-19T18:24:37.000Z</time>
      </trkpt>
      <trkpt lat="47.26138" lon="3.92111">
        <ele>389</ele>
        <time>2016-07-19T18:24:37.000Z</time>
      </trkpt>
      <trkpt lat="47.26175" lon="3.92023">
        <ele>391</ele>
        <time>2016-07-19T18:24:37.000Z</time>
      </trkpt>
      <trkpt lat="47.26256" lon="3.92009">
        <ele>395</ele>
        <time>2016-07-19T18:24:37.000Z</time>
      </trkpt>
      <trkpt lat="47.26248" lon="3.91923">
        <ele>403</ele>
        <time>2016-07-19T18:24:37.000Z</time>
      </trkpt>
      <trkpt lat="47.26255" lon="3.91751">
        <ele>421</ele>
        <time>2016-07-19T18:24:37.000Z</time>
      </trkpt>
      <trkpt lat="47.26232" lon="3.91665">
        <ele>421</ele>
        <time>2016-07-19T18:24:37.000Z</time>
      </trkpt>
      <trkpt lat="47.2634" lon="3.91149">
        <ele>434</ele>
        <time>2016-07-19T18:24:37.000Z</time>
      </trkpt>
      <trkpt lat="47.26354" lon="3.91077">
        <ele>435</ele>
        <time>2016-07-19T18:24:37.000Z</time>
      </trkpt>
      <trkpt lat="47.26385" lon="3.91012">
        <ele>428</ele>
        <time>2016-07-19T18:24:37.000Z</time>
      </trkpt>
      <trkpt lat="47.26367" lon="3.90968">
        <ele>425</ele>
        <time>2016-07-19T18:24:37.000Z</time>
      </trkpt>
      <trkpt lat="47.26343" lon="3.90941">
        <ele>422</ele>
        <time>2016-07-19T18:24:37.000Z</time>
      </trkpt>
      <trkpt lat="47.26332" lon="3.90894">
        <ele>419</ele>
        <time>2016-07-19T18:24:37.000Z</time>
      </trkpt>
      <trkpt lat="47.26377" lon="3.90889">
        <ele>418</ele>
        <time>2016-07-19T18:24:37.000Z</time>
      </trkpt>
      <trkpt lat="47.26425" lon="3.90811">
        <ele>411</ele>
        <time>2016-07-19T18:24:37.000Z</time>
      </trkpt>
      <trkpt lat="47.26433" lon="3.90803">
        <ele>412</ele>
        <time>2016-07-19T18:24:37.000Z</time>
      </trkpt>
      <trkpt lat="47.26422" lon="3.90813">
        <ele>412</ele>
        <time>2016-07-19T18:24:37.000Z</time>
      </trkpt>
      <trkpt lat="47.26429" lon="3.90806">
        <ele>412</ele>
        <time>2016-07-19T18:24:37.000Z</time>
      </trkpt>
      <trkpt lat="47.26436" lon="3.90803">
        <ele>411</ele>
        <time>2016-07-19T18:24:37.000Z</time>
      </trkpt>
      <trkpt lat="47.26443" lon="3.90797">
        <ele>411</ele>
        <time>2016-07-19T18:24:37.000Z</time>
      </trkpt>
      <trkpt lat="47.26449" lon="3.9079">
        <ele>411</ele>
        <time>2016-07-19T18:24:37.000Z</time>
      </trkpt>
      <trkpt lat="47.26461" lon="3.90778">
        <ele>411</ele>
        <time>2016-07-19T18:24:37.000Z</time>
      </trkpt>
      <trkpt lat="47.26468" lon="3.90774">
        <ele>410</ele>
        <time>2016-07-19T18:24:37.000Z</time>
      </trkpt>
      <trkpt lat="47.26477" lon="3.90765">
        <ele>410</ele>
        <time>2016-07-19T18:24:37.000Z</time>
      </trkpt>
      <trkpt lat="47.26497" lon="3.90775">
        <ele>408</ele>
        <time>2016-07-19T18:24:37.000Z</time>
      </trkpt>
      <trkpt lat="47.26497" lon="3.90752">
        <ele>409</ele>
        <time>2016-07-19T18:24:37.000Z</time>
      </trkpt>
      <trkpt lat="47.26502" lon="3.90742">
        <ele>410</ele>
        <time>2016-07-19T18:24:37.000Z</time>
      </trkpt>
      <trkpt lat="47.26509" lon="3.90736">
        <ele>410</ele>
        <time>2016-07-19T18:24:37.000Z</time>
      </trkpt>
      <trkpt lat="47.26515" lon="3.9073">
        <ele>410</ele>
        <time>2016-07-19T18:24:37.000Z</time>
      </trkpt>
      <trkpt lat="47.26522" lon="3.9072">
        <ele>410</ele>
        <time>2016-07-19T18:24:37.000Z</time>
      </trkpt>
      <trkpt lat="47.26529" lon="3.90717">
        <ele>410</ele>
        <time>2016-07-19T18:24:37.000Z</time>
      </trkpt>
      <trkpt lat="47.26536" lon="3.90714">
        <ele>409</ele>
        <time>2016-07-19T18:24:37.000Z</time>
      </trkpt>
      <trkpt lat="47.2654" lon="3.90724">
        <ele>408</ele>
        <time>2016-07-19T18:24:37.000Z</time>
      </trkpt>
      <trkpt lat="47.26542" lon="3.90737">
        <ele>408</ele>
        <time>2016-07-19T18:24:37.000Z</time>
      </trkpt>
      <trkpt lat="47.2654" lon="3.90724">
        <ele>408</ele>
        <time>2016-07-19T18:24:37.000Z</time>
      </trkpt>
      <trkpt lat="47.2654" lon="3.90711">
        <ele>409</ele>
        <time>2016-07-19T18:24:37.000Z</time>
      </trkpt>
      <trkpt lat="47.26547" lon="3.90707">
        <ele>409</ele>
        <time>2016-07-19T18:24:37.000Z</time>
      </trkpt>
      <trkpt lat="47.26555" lon="3.90713">
        <ele>408</ele>
        <time>2016-07-19T18:24:37.000Z</time>
      </trkpt>
      <trkpt lat="47.26532" lon="3.90563">
        <ele>413</ele>
        <time>2016-07-19T18:24:37.000Z</time>
      </trkpt>
      <trkpt lat="47.26523" lon="3.90437">
        <ele>412</ele>
        <time>2016-07-19T18:24:37.000Z</time>
      </trkpt>
      <trkpt lat="47.26609" lon="3.90182">
        <ele>416</ele>
        <time>2016-07-19T18:24:37.000Z</time>
      </trkpt>
      <trkpt lat="47.266" lon="3.90083">
        <ele>418</ele>
        <time>2016-07-19T18:24:37.000Z</time>
      </trkpt>
      <trkpt lat="47.2655" lon="3.89916">
        <ele>411</ele>
        <time>2016-07-19T18:24:37.000Z</time>
      </trkpt>
      <trkpt lat="47.26525" lon="3.89786">
        <ele>409</ele>
        <time>2016-07-19T18:24:37.000Z</time>
      </trkpt>
      <trkpt lat="47.26466" lon="3.89646">
        <ele>424</ele>
        <time>2016-07-19T18:24:37.000Z</time>
      </trkpt>
      <trkpt lat="47.2641" lon="3.89443">
        <ele>423</ele>
        <time>2016-07-19T18:24:37.000Z</time>
      </trkpt>
      <trkpt lat="47.26387" lon="3.89313">
        <ele>419</ele>
        <time>2016-07-19T18:24:37.000Z</time>
      </trkpt>
      <trkpt lat="47.26288" lon="3.89175">
        <ele>427</ele>
        <time>2016-07-19T18:24:37.000Z</time>
      </trkpt>
      <trkpt lat="47.26192" lon="3.88984">
        <ele>444</ele>
        <time>2016-07-19T18:24:37.000Z</time>
      </trkpt>
      <trkpt lat="47.26121" lon="3.8874">
        <ele>464</ele>
        <time>2016-07-19T18:24:37.000Z</time>
      </trkpt>
      <trkpt lat="47.26081" lon="3.88657">
        <ele>464</ele>
        <time>2016-07-19T18:24:37.000Z</time>
      </trkpt>
      <trkpt lat="47.2597" lon="3.88571">
        <ele>458</ele>
        <time>2016-07-19T18:24:37.000Z</time>
      </trkpt>
      <trkpt lat="47.25919" lon="3.88474">
        <ele>458</ele>
        <time>2016-07-19T18:24:37.000Z</time>
      </trkpt>
      <trkpt lat="47.25936" lon="3.88408">
        <ele>461</ele>
        <time>2016-07-19T18:24:37.000Z</time>
      </trkpt>
      <trkpt lat="47.26147" lon="3.88447">
        <ele>465</ele>
        <time>2016-07-19T18:24:37.000Z</time>
      </trkpt>
      <trkpt lat="47.26303" lon="3.88587">
        <ele>462</ele>
        <time>2016-07-19T18:24:37.000Z</time>
      </trkpt>
      <trkpt lat="47.26412" lon="3.88627">
        <ele>462</ele>
        <time>2016-07-19T18:24:37.000Z</time>
      </trkpt>
      <trkpt lat="47.26498" lon="3.88599">
        <ele>459</ele>
        <time>2016-07-19T18:24:37.000Z</time>
      </trkpt>
      <trkpt lat="47.26975" lon="3.88455">
        <ele>483</ele>
        <time>2016-07-19T18:24:37.000Z</time>
      </trkpt>
      <trkpt lat="47.27071" lon="3.88471">
        <ele>476</ele>
        <time>2016-07-19T18:24:37.000Z</time>
      </trkpt>
      <trkpt lat="47.27079" lon="3.88472">
        <ele>476</ele>
        <time>2016-07-19T18:24:37.000Z</time>
      </trkpt>
      <trkpt lat="47.27088" lon="3.88479">
        <ele>475</ele>
        <time>2016-07-19T18:24:37.000Z</time>
      </trkpt>
      <trkpt lat="47.27095" lon="3.88486">
        <ele>475</ele>
        <time>2016-07-19T18:24:37.000Z</time>
      </trkpt>
      <trkpt lat="47.27101" lon="3.88496">
        <ele>475</ele>
        <time>2016-07-19T18:24:37.000Z</time>
      </trkpt>
      <trkpt lat="47.27108" lon="3.88503">
        <ele>475</ele>
        <time>2016-07-19T18:24:37.000Z</time>
      </trkpt>
      <trkpt lat="47.27101" lon="3.88516">
        <ele>475</ele>
        <time>2016-07-19T18:24:37.000Z</time>
      </trkpt>
      <trkpt lat="47.27108" lon="3.88526">
        <ele>475</ele>
        <time>2016-07-19T18:24:37.000Z</time>
      </trkpt>
      <trkpt lat="47.27114" lon="3.88536">
        <ele>476</ele>
        <time>2016-07-19T18:24:37.000Z</time>
      </trkpt>
      <trkpt lat="47.27123" lon="3.8855">
        <ele>476</ele>
        <time>2016-07-19T18:24:37.000Z</time>
      </trkpt>
      <trkpt lat="47.27124" lon="3.88561">
        <ele>476</ele>
        <time>2016-07-19T18:24:37.000Z</time>
      </trkpt>
      <trkpt lat="47.27155" lon="3.88579">
        <ele>474</ele>
        <time>2016-07-19T18:24:37.000Z</time>
      </trkpt>
      <trkpt lat="47.27246" lon="3.88654">
        <ele>473</ele>
        <time>2016-07-19T18:24:37.000Z</time>
      </trkpt>
      <trkpt lat="47.27316" lon="3.88805">
        <ele>471</ele>
        <time>2016-07-19T18:24:37.000Z</time>
      </trkpt>
      <trkpt lat="47.27355" lon="3.88905">
        <ele>474</ele>
        <time>2016-07-19T18:24:37.000Z</time>
      </trkpt>
      <trkpt lat="47.27387" lon="3.89088">
        <ele>464</ele>
        <time>2016-07-19T18:24:37.000Z</time>
      </trkpt>
      <trkpt lat="47.27418" lon="3.89132">
        <ele>461</ele>
        <time>2016-07-19T18:24:37.000Z</time>
      </trkpt>
      <trkpt lat="47.27492" lon="3.89104">
        <ele>453</ele>
        <time>2016-07-19T18:24:37.000Z</time>
      </trkpt>
      <trkpt lat="47.2752" lon="3.89082">
        <ele>451</ele>
        <time>2016-07-19T18:24:37.000Z</time>
      </trkpt>
      <trkpt lat="47.2758" lon="3.88955">
        <ele>453</ele>
        <time>2016-07-19T18:24:37.000Z</time>
      </trkpt>
      <trkpt lat="47.27627" lon="3.88923">
        <ele>455</ele>
        <time>2016-07-19T18:24:37.000Z</time>
      </trkpt>
      <trkpt lat="47.27665" lon="3.88666">
        <ele>473</ele>
        <time>2016-07-19T18:24:37.000Z</time>
      </trkpt>
      <trkpt lat="47.27806" lon="3.88502">
        <ele>489</ele>
        <time>2016-07-19T18:24:37.000Z</time>
      </trkpt>
      <trkpt lat="47.27835" lon="3.88384">
        <ele>499</ele>
        <time>2016-07-19T18:24:37.000Z</time>
      </trkpt>
      <trkpt lat="47.2792" lon="3.8837">
        <ele>502</ele>
        <time>2016-07-19T18:24:37.000Z</time>
      </trkpt>
      <trkpt lat="47.27992" lon="3.88375">
        <ele>506</ele>
        <time>2016-07-19T18:24:37.000Z</time>
      </trkpt>
      <trkpt lat="47.281" lon="3.88223">
        <ele>502</ele>
        <time>2016-07-19T18:24:37.000Z</time>
      </trkpt>
      <trkpt lat="47.28173" lon="3.88132">
        <ele>503</ele>
        <time>2016-07-19T18:24:37.000Z</time>
      </trkpt>
      <trkpt lat="47.28307" lon="3.87855">
        <ele>511</ele>
        <time>2016-07-19T18:24:37.000Z</time>
      </trkpt>
      <trkpt lat="47.28334" lon="3.87707">
        <ele>514</ele>
        <time>2016-07-19T18:24:37.000Z</time>
      </trkpt>
      <trkpt lat="47.28375" lon="3.87484">
        <ele>531</ele>
        <time>2016-07-19T18:24:37.000Z</time>
      </trkpt>
      <trkpt lat="47.28384" lon="3.87365">
        <ele>542</ele>
        <time>2016-07-19T18:24:37.000Z</time>
      </trkpt>
      <trkpt lat="47.28384" lon="3.87315">
        <ele>545</ele>
        <time>2016-07-19T18:24:37.000Z</time>
      </trkpt>
      <trkpt lat="47.28378" lon="3.87279">
        <ele>546</ele>
        <time>2016-07-19T18:24:37.000Z</time>
      </trkpt>
      <trkpt lat="47.28341" lon="3.87202">
        <ele>543</ele>
        <time>2016-07-19T18:24:37.000Z</time>
      </trkpt>
      <trkpt lat="47.28292" lon="3.87164">
        <ele>540</ele>
        <time>2016-07-19T18:24:37.000Z</time>
      </trkpt>
      <trkpt lat="47.28316" lon="3.87082">
        <ele>531</ele>
        <time>2016-07-19T18:24:37.000Z</time>
      </trkpt>
      <trkpt lat="47.28355" lon="3.86994">
        <ele>527</ele>
        <time>2016-07-19T18:24:37.000Z</time>
      </trkpt>
      <trkpt lat="47.28318" lon="3.86894">
        <ele>528</ele>
        <time>2016-07-19T18:24:37.000Z</time>
      </trkpt>
      <trkpt lat="47.28326" lon="3.86785">
        <ele>529</ele>
        <time>2016-07-19T18:24:37.000Z</time>
      </trkpt>
      <trkpt lat="47.28341" lon="3.86663">
        <ele>528</ele>
        <time>2016-07-19T18:24:37.000Z</time>
      </trkpt>
      <trkpt lat="47.28332" lon="3.86504">
        <ele>545</ele>
        <time>2016-07-19T18:24:37.000Z</time>
      </trkpt>
      <trkpt lat="47.28306" lon="3.8648">
        <ele>541</ele>
        <time>2016-07-19T18:24:37.000Z</time>
      </trkpt>
      <trkpt lat="47.28292" lon="3.86338">
        <ele>544</ele>
        <time>2016-07-19T18:24:37.000Z</time>
      </trkpt>
      <trkpt lat="47.28284" lon="3.86258">
        <ele>543</ele>
        <time>2016-07-19T18:24:37.000Z</time>
      </trkpt>
      <trkpt lat="47.28215" lon="3.86147">
        <ele>545</ele>
        <time>2016-07-19T18:24:37.000Z</time>
      </trkpt>
      <trkpt lat="47.28201" lon="3.86057">
        <ele>550</ele>
        <time>2016-07-19T18:24:37.000Z</time>
      </trkpt>
      <trkpt lat="47.28235" lon="3.85886">
        <ele>551</ele>
        <time>2016-07-19T18:24:37.000Z</time>
      </trkpt>
      <trkpt lat="47.28273" lon="3.85848">
        <ele>552</ele>
        <time>2016-07-19T18:24:37.000Z</time>
      </trkpt>
      <trkpt lat="47.28398" lon="3.85643">
        <ele>546</ele>
        <time>2016-07-19T18:24:37.000Z</time>
      </trkpt>
      <trkpt lat="47.28409" lon="3.85455">
        <ele>527</ele>
        <time>2016-07-19T18:24:37.000Z</time>
      </trkpt>
      <trkpt lat="47.28383" lon="3.85378">
        <ele>524</ele>
        <time>2016-07-19T18:24:37.000Z</time>
      </trkpt>
      <trkpt lat="47.28306" lon="3.85237">
        <ele>519</ele>
        <time>2016-07-19T18:24:37.000Z</time>
      </trkpt>
      <trkpt lat="47.28352" lon="3.85143">
        <ele>514</ele>
        <time>2016-07-19T18:24:37.000Z</time>
      </trkpt>
      <trkpt lat="47.28394" lon="3.85071">
        <ele>506</ele>
        <time>2016-07-19T18:24:37.000Z</time>
      </trkpt>
      <trkpt lat="47.28549" lon="3.85089">
        <ele>492</ele>
        <time>2016-07-19T18:24:37.000Z</time>
      </trkpt>
      <trkpt lat="47.28624" lon="3.85028">
        <ele>476</ele>
        <time>2016-07-19T18:24:37.000Z</time>
      </trkpt>
      <trkpt lat="47.28711" lon="3.85057">
        <ele>471</ele>
        <time>2016-07-19T18:24:37.000Z</time>
      </trkpt>
      <trkpt lat="47.28818" lon="3.84977">
        <ele>467</ele>
        <time>2016-07-19T18:24:37.000Z</time>
      </trkpt>
      <trkpt lat="47.28823" lon="3.84902">
        <ele>464</ele>
        <time>2016-07-19T18:24:37.000Z</time>
      </trkpt>
      <trkpt lat="47.28779" lon="3.84841">
        <ele>463</ele>
        <time>2016-07-19T18:24:37.000Z</time>
      </trkpt>
      <trkpt lat="47.28753" lon="3.84771">
        <ele>460</ele>
        <time>2016-07-19T18:24:37.000Z</time>
      </trkpt>
      <trkpt lat="47.28671" lon="3.84709">
        <ele>448</ele>
        <time>2016-07-19T18:24:37.000Z</time>
      </trkpt>
      <trkpt lat="47.28656" lon="3.84626">
        <ele>445</ele>
        <time>2016-07-19T18:24:37.000Z</time>
      </trkpt>
      <trkpt lat="47.28639" lon="3.84569">
        <ele>441</ele>
        <time>2016-07-19T18:24:37.000Z</time>
      </trkpt>
      <trkpt lat="47.28629" lon="3.84554">
        <ele>440</ele>
        <time>2016-07-19T18:24:37.000Z</time>
      </trkpt>
      <trkpt lat="47.28624" lon="3.84564">
        <ele>440</ele>
        <time>2016-07-19T18:24:37.000Z</time>
      </trkpt>
      <trkpt lat="47.28618" lon="3.84557">
        <ele>439</ele>
        <time>2016-07-19T18:24:37.000Z</time>
      </trkpt>
      <trkpt lat="47.28624" lon="3.84564">
        <ele>440</ele>
        <time>2016-07-19T18:24:37.000Z</time>
      </trkpt>
      <trkpt lat="47.28618" lon="3.84557">
        <ele>439</ele>
        <time>2016-07-19T18:24:37.000Z</time>
      </trkpt>
      <trkpt lat="47.28624" lon="3.84564">
        <ele>440</ele>
        <time>2016-07-19T18:24:37.000Z</time>
      </trkpt>
      <trkpt lat="47.2864" lon="3.84567">
        <ele>441</ele>
        <time>2016-07-19T18:24:37.000Z</time>
      </trkpt>
      <trkpt lat="47.28626" lon="3.84567">
        <ele>440</ele>
        <time>2016-07-19T18:24:37.000Z</time>
      </trkpt>
      <trkpt lat="47.2864" lon="3.84567">
        <ele>441</ele>
        <time>2016-07-19T18:24:37.000Z</time>
      </trkpt>
      <trkpt lat="47.28647" lon="3.84578">
        <ele>441</ele>
        <time>2016-07-19T18:24:37.000Z</time>
      </trkpt>
      <trkpt lat="47.2864" lon="3.84571">
        <ele>441</ele>
        <time>2016-07-19T18:24:37.000Z</time>
      </trkpt>
      <trkpt lat="47.28647" lon="3.84578">
        <ele>441</ele>
        <time>2016-07-19T18:24:37.000Z</time>
      </trkpt>
      <trkpt lat="47.2864" lon="3.84567">
        <ele>441</ele>
        <time>2016-07-19T18:24:37.000Z</time>
      </trkpt>
      <trkpt lat="47.28629" lon="3.84554">
        <ele>440</ele>
        <time>2016-07-19T18:24:37.000Z</time>
      </trkpt>
      <trkpt lat="47.28624" lon="3.84564">
        <ele>440</ele>
        <time>2016-07-19T18:24:37.000Z</time>
      </trkpt>
      <trkpt lat="47.28618" lon="3.84557">
        <ele>439</ele>
        <time>2016-07-19T18:24:37.000Z</time>
      </trkpt>
      <trkpt lat="47.28624" lon="3.84564">
        <ele>440</ele>
        <time>2016-07-19T18:24:37.000Z</time>
      </trkpt>
      <trkpt lat="47.28618" lon="3.84557">
        <ele>439</ele>
        <time>2016-07-19T18:24:37.000Z</time>
      </trkpt>
      <trkpt lat="47.28609" lon="3.8455">
        <ele>439</ele>
        <time>2016-07-19T18:24:37.000Z</time>
      </trkpt>
      <trkpt lat="47.28618" lon="3.84557">
        <ele>439</ele>
        <time>2016-07-19T18:24:37.000Z</time>
      </trkpt>
      <trkpt lat="47.28609" lon="3.8455">
        <ele>439</ele>
        <time>2016-07-19T18:24:37.000Z</time>
      </trkpt>
      <trkpt lat="47.28595" lon="3.8454">
        <ele>438</ele>
        <time>2016-07-19T18:24:37.000Z</time>
      </trkpt>
      <trkpt lat="47.28604" lon="3.84547">
        <ele>438</ele>
        <time>2016-07-19T18:24:37.000Z</time>
      </trkpt>
      <trkpt lat="47.28595" lon="3.8454">
        <ele>438</ele>
        <time>2016-07-19T18:24:37.000Z</time>
      </trkpt>
      <trkpt lat="47.28604" lon="3.84547">
        <ele>438</ele>
        <time>2016-07-19T18:24:37.000Z</time>
      </trkpt>
      <trkpt lat="47.28595" lon="3.8454">
        <ele>438</ele>
        <time>2016-07-19T18:24:37.000Z</time>
      </trkpt>
      <trkpt lat="47.28604" lon="3.84547">
        <ele>438</ele>
        <time>2016-07-19T18:24:37.000Z</time>
      </trkpt>
      <trkpt lat="47.28594" lon="3.84558">
        <ele>438</ele>
        <time>2016-07-19T18:24:37.000Z</time>
      </trkpt>
      <trkpt lat="47.28543" lon="3.84474">
        <ele>443</ele>
        <time>2016-07-19T18:24:37.000Z</time>
      </trkpt>
      <trkpt lat="47.28528" lon="3.84437">
        <ele>442</ele>
        <time>2016-07-19T18:24:37.000Z</time>
      </trkpt>
      <trkpt lat="47.28524" lon="3.84377">
        <ele>441</ele>
        <time>2016-07-19T18:24:37.000Z</time>
      </trkpt>
      <trkpt lat="47.28494" lon="3.84297">
        <ele>439</ele>
        <time>2016-07-19T18:24:37.000Z</time>
      </trkpt>
      <trkpt lat="47.28449" lon="3.8427">
        <ele>440</ele>
        <time>2016-07-19T18:24:37.000Z</time>
      </trkpt>
      <trkpt lat="47.28418" lon="3.84222">
        <ele>442</ele>
        <time>2016-07-19T18:24:37.000Z</time>
      </trkpt>
      <trkpt lat="47.28284" lon="3.84156">
        <ele>441</ele>
        <time>2016-07-19T18:24:37.000Z</time>
      </trkpt>
      <trkpt lat="47.2822" lon="3.84108">
        <ele>441</ele>
        <time>2016-07-19T18:24:37.000Z</time>
      </trkpt>
      <trkpt lat="47.28176" lon="3.84014">
        <ele>442</ele>
        <time>2016-07-19T18:24:37.000Z</time>
      </trkpt>
      <trkpt lat="47.28171" lon="3.83996">
        <ele>442</ele>
        <time>2016-07-19T18:24:37.000Z</time>
      </trkpt>
      <trkpt lat="47.28161" lon="3.84012">
        <ele>441</ele>
        <time>2016-07-19T18:24:37.000Z</time>
      </trkpt>
      <trkpt lat="47.28155" lon="3.84005">
        <ele>440</ele>
        <time>2016-07-19T18:24:37.000Z</time>
      </trkpt>
      <trkpt lat="47.28148" lon="3.83992">
        <ele>440</ele>
        <time>2016-07-19T18:24:37.000Z</time>
      </trkpt>
      <trkpt lat="47.28145" lon="3.8398">
        <ele>439</ele>
        <time>2016-07-19T18:24:37.000Z</time>
      </trkpt>
      <trkpt lat="47.28114" lon="3.83933">
        <ele>435</ele>
        <time>2016-07-19T18:24:37.000Z</time>
      </trkpt>
      <trkpt lat="47.2809" lon="3.83916">
        <ele>436</ele>
        <time>2016-07-19T18:24:37.000Z</time>
      </trkpt>
      <trkpt lat="47.27956" lon="3.83985">
        <ele>444</ele>
        <time>2016-07-19T18:24:37.000Z</time>
      </trkpt>
      <trkpt lat="47.27908" lon="3.84036">
        <ele>445</ele>
        <time>2016-07-19T18:24:37.000Z</time>
      </trkpt>
      <trkpt lat="47.27867" lon="3.84098">
        <ele>448</ele>
        <time>2016-07-19T18:24:37.000Z</time>
      </trkpt>
      <trkpt lat="47.27867" lon="3.84101">
        <ele>448</ele>
        <time>2016-07-19T18:24:37.000Z</time>
      </trkpt>
      <trkpt lat="47.27861" lon="3.84103">
        <ele>449</ele>
        <time>2016-07-19T18:24:37.000Z</time>
      </trkpt>
      <trkpt lat="47.27868" lon="3.84099">
        <ele>448</ele>
        <time>2016-07-19T18:24:37.000Z</time>
      </trkpt>
      <trkpt lat="47.27861" lon="3.84103">
        <ele>449</ele>
        <time>2016-07-19T18:24:37.000Z</time>
      </trkpt>
      <trkpt lat="47.27856" lon="3.84112">
        <ele>449</ele>
        <time>2016-07-19T18:24:37.000Z</time>
      </trkpt>
      <trkpt lat="47.2785" lon="3.84115">
        <ele>450</ele>
        <time>2016-07-19T18:24:37.000Z</time>
      </trkpt>
      <trkpt lat="47.27843" lon="3.84115">
        <ele>451</ele>
        <time>2016-07-19T18:24:37.000Z</time>
      </trkpt>
      <trkpt lat="47.27836" lon="3.84118">
        <ele>452</ele>
        <time>2016-07-19T18:24:37.000Z</time>
      </trkpt>
      <trkpt lat="47.27829" lon="3.84118">
        <ele>452</ele>
        <time>2016-07-19T18:24:37.000Z</time>
      </trkpt>
      <trkpt lat="47.27823" lon="3.84115">
        <ele>452</ele>
        <time>2016-07-19T18:24:37.000Z</time>
      </trkpt>
      <trkpt lat="47.27816" lon="3.84115">
        <ele>453</ele>
        <time>2016-07-19T18:24:37.000Z</time>
      </trkpt>
      <trkpt lat="47.27823" lon="3.84118">
        <ele>452</ele>
        <time>2016-07-19T18:24:37.000Z</time>
      </trkpt>
      <trkpt lat="47.27816" lon="3.84115">
        <ele>453</ele>
        <time>2016-07-19T18:24:37.000Z</time>
      </trkpt>
      <trkpt lat="47.27809" lon="3.84114">
        <ele>453</ele>
        <time>2016-07-19T18:24:37.000Z</time>
      </trkpt>
      <trkpt lat="47.27802" lon="3.84114">
        <ele>454</ele>
        <time>2016-07-19T18:24:37.000Z</time>
      </trkpt>
      <trkpt lat="47.27796" lon="3.84114">
        <ele>454</ele>
        <time>2016-07-19T18:24:37.000Z</time>
      </trkpt>
      <trkpt lat="47.27789" lon="3.84114">
        <ele>454</ele>
        <time>2016-07-19T18:24:37.000Z</time>
      </trkpt>
      <trkpt lat="47.27782" lon="3.84114">
        <ele>455</ele>
        <time>2016-07-19T18:24:37.000Z</time>
      </trkpt>
      <trkpt lat="47.27775" lon="3.84117">
        <ele>455</ele>
        <time>2016-07-19T18:24:37.000Z</time>
      </trkpt>
      <trkpt lat="47.27769" lon="3.84117">
        <ele>455</ele>
        <time>2016-07-19T18:24:37.000Z</time>
      </trkpt>
      <trkpt lat="47.27763" lon="3.84125">
        <ele>457</ele>
        <time>2016-07-19T18:24:37.000Z</time>
      </trkpt>
      <trkpt lat="47.27578" lon="3.8556">
        <ele>529</ele>
        <time>2016-07-19T18:24:37.000Z</time>
      </trkpt>
      <trkpt lat="47.27602" lon="3.85607">
        <ele>528</ele>
        <time>2016-07-19T18:24:37.000Z</time>
      </trkpt>
      <trkpt lat="47.27607" lon="3.85616">
        <ele>527</ele>
        <time>2016-07-19T18:24:37.000Z</time>
      </trkpt>
      <trkpt lat="47.27607" lon="3.85626">
        <ele>527</ele>
        <time>2016-07-19T18:24:37.000Z</time>
      </trkpt>
      <trkpt lat="47.27601" lon="3.8565">
        <ele>528</ele>
        <time>2016-07-19T18:24:37.000Z</time>
      </trkpt>
      <trkpt lat="47.27596" lon="3.85713">
        <ele>531</ele>
        <time>2016-07-19T18:24:37.000Z</time>
      </trkpt>
      <trkpt lat="47.27613" lon="3.85796">
        <ele>537</ele>
        <time>2016-07-19T18:24:37.000Z</time>
      </trkpt>
      <trkpt lat="47.2757" lon="3.8594">
        <ele>540</ele>
        <time>2016-07-19T18:24:37.000Z</time>
      </trkpt>
      <trkpt lat="47.27454" lon="3.85917">
        <ele>536</ele>
        <time>2016-07-19T18:24:37.000Z</time>
      </trkpt>
      <trkpt lat="47.27307" lon="3.85817">
        <ele>533</ele>
        <time>2016-07-19T18:24:37.000Z</time>
      </trkpt>
      <trkpt lat="47.27202" lon="3.85712">
        <ele>514</ele>
        <time>2016-07-19T18:24:37.000Z</time>
      </trkpt>
      <trkpt lat="47.27142" lon="3.85674">
        <ele>508</ele>
        <time>2016-07-19T18:24:37.000Z</time>
      </trkpt>
      <trkpt lat="47.27116" lon="3.85627">
        <ele>499</ele>
        <time>2016-07-19T18:24:37.000Z</time>
      </trkpt>
      <trkpt lat="47.2705" lon="3.85648">
        <ele>498</ele>
        <time>2016-07-19T18:24:37.000Z</time>
      </trkpt>
      <trkpt lat="47.27058" lon="3.85663">
        <ele>501</ele>
        <time>2016-07-19T18:24:37.000Z</time>
      </trkpt>
      <trkpt lat="47.27053" lon="3.85673">
        <ele>502</ele>
        <time>2016-07-19T18:24:37.000Z</time>
      </trkpt>
      <trkpt lat="47.27051" lon="3.85683">
        <ele>503</ele>
        <time>2016-07-19T18:24:37.000Z</time>
      </trkpt>
      <trkpt lat="47.27044" lon="3.85686">
        <ele>502</ele>
        <time>2016-07-19T18:24:37.000Z</time>
      </trkpt>
      <trkpt lat="47.27037" lon="3.85689">
        <ele>501</ele>
        <time>2016-07-19T18:24:37.000Z</time>
      </trkpt>
      <trkpt lat="47.27031" lon="3.85682">
        <ele>499</ele>
        <time>2016-07-19T18:24:37.000Z</time>
      </trkpt>
      <trkpt lat="47.27024" lon="3.85685">
        <ele>498</ele>
        <time>2016-07-19T18:24:37.000Z</time>
      </trkpt>
      <trkpt lat="47.26982" lon="3.85666">
        <ele>490</ele>
        <time>2016-07-19T18:24:37.000Z</time>
      </trkpt>
      <trkpt lat="47.26917" lon="3.85538">
        <ele>481</ele>
        <time>2016-07-19T18:24:37.000Z</time>
      </trkpt>
      <trkpt lat="47.26892" lon="3.85538">
        <ele>484</ele>
        <time>2016-07-19T18:24:37.000Z</time>
      </trkpt>
      <trkpt lat="47.26684" lon="3.85806">
        <ele>487</ele>
        <time>2016-07-19T18:24:37.000Z</time>
      </trkpt>
      <trkpt lat="47.26674" lon="3.85849">
        <ele>483</ele>
        <time>2016-07-19T18:24:37.000Z</time>
      </trkpt>
      <trkpt lat="47.26737" lon="3.86039">
        <ele>480</ele>
        <time>2016-07-19T18:24:37.000Z</time>
      </trkpt>
      <trkpt lat="47.26763" lon="3.86129">
        <ele>486</ele>
        <time>2016-07-19T18:24:37.000Z</time>
      </trkpt>
      <trkpt lat="47.26744" lon="3.86373">
        <ele>483</ele>
        <time>2016-07-19T18:24:37.000Z</time>
      </trkpt>
      <trkpt lat="47.2666" lon="3.86374">
        <ele>485</ele>
        <time>2016-07-19T18:24:37.000Z</time>
      </trkpt>
      <trkpt lat="47.26526" lon="3.86317">
        <ele>487</ele>
        <time>2016-07-19T18:24:37.000Z</time>
      </trkpt>
      <trkpt lat="47.26401" lon="3.8629">
        <ele>484</ele>
        <time>2016-07-19T18:24:37.000Z</time>
      </trkpt>
      <trkpt lat="47.26281" lon="3.86333">
        <ele>467</ele>
        <time>2016-07-19T18:24:37.000Z</time>
      </trkpt>
      <trkpt lat="47.26332" lon="3.86368">
        <ele>482</ele>
        <time>2016-07-19T18:24:37.000Z</time>
      </trkpt>
      <trkpt lat="47.26332" lon="3.86401">
        <ele>486</ele>
        <time>2016-07-19T18:24:37.000Z</time>
      </trkpt>
      <trkpt lat="47.26156" lon="3.86584">
        <ele>482</ele>
        <time>2016-07-19T18:24:37.000Z</time>
      </trkpt>
      <trkpt lat="47.26059" lon="3.86776">
        <ele>485</ele>
        <time>2016-07-19T18:24:37.000Z</time>
      </trkpt>
      <trkpt lat="47.26" lon="3.86847">
        <ele>479</ele>
        <time>2016-07-19T18:24:37.000Z</time>
      </trkpt>
      <trkpt lat="47.25996" lon="3.86855">
        <ele>478</ele>
        <time>2016-07-19T18:24:37.000Z</time>
      </trkpt>
      <trkpt lat="47.25992" lon="3.86865">
        <ele>478</ele>
        <time>2016-07-19T18:24:37.000Z</time>
      </trkpt>
      <trkpt lat="47.25989" lon="3.86881">
        <ele>479</ele>
        <time>2016-07-19T18:24:37.000Z</time>
      </trkpt>
      <trkpt lat="47.25984" lon="3.86891">
        <ele>478</ele>
        <time>2016-07-19T18:24:37.000Z</time>
      </trkpt>
      <trkpt lat="47.25982" lon="3.86901">
        <ele>478</ele>
        <time>2016-07-19T18:24:37.000Z</time>
      </trkpt>
      <trkpt lat="47.2598" lon="3.86911">
        <ele>478</ele>
        <time>2016-07-19T18:24:37.000Z</time>
      </trkpt>
      <trkpt lat="47.2598" lon="3.86921">
        <ele>479</ele>
        <time>2016-07-19T18:24:37.000Z</time>
      </trkpt>
      <trkpt lat="47.25975" lon="3.86931">
        <ele>478</ele>
        <time>2016-07-19T18:24:37.000Z</time>
      </trkpt>
      <trkpt lat="47.25973" lon="3.8694">
        <ele>478</ele>
        <time>2016-07-19T18:24:37.000Z</time>
      </trkpt>
      <trkpt lat="47.25979" lon="3.86951">
        <ele>480</ele>
        <time>2016-07-19T18:24:37.000Z</time>
      </trkpt>
      <trkpt lat="47.25977" lon="3.8696">
        <ele>480</ele>
        <time>2016-07-19T18:24:37.000Z</time>
      </trkpt>
      <trkpt lat="47.25972" lon="3.8697">
        <ele>479</ele>
        <time>2016-07-19T18:24:37.000Z</time>
      </trkpt>
      <trkpt lat="47.25966" lon="3.8696">
        <ele>478</ele>
        <time>2016-07-19T18:24:37.000Z</time>
      </trkpt>
      <trkpt lat="47.25972" lon="3.8696">
        <ele>479</ele>
        <time>2016-07-19T18:24:37.000Z</time>
      </trkpt>
      <trkpt lat="47.25979" lon="3.86951">
        <ele>480</ele>
        <time>2016-07-19T18:24:37.000Z</time>
      </trkpt>
      <trkpt lat="47.25977" lon="3.8696">
        <ele>480</ele>
        <time>2016-07-19T18:24:37.000Z</time>
      </trkpt>
      <trkpt lat="47.25972" lon="3.8697">
        <ele>479</ele>
        <time>2016-07-19T18:24:37.000Z</time>
      </trkpt>
      <trkpt lat="47.25977" lon="3.8698">
        <ele>480</ele>
        <time>2016-07-19T18:24:37.000Z</time>
      </trkpt>
      <trkpt lat="47.25976" lon="3.8699">
        <ele>480</ele>
        <time>2016-07-19T18:24:37.000Z</time>
      </trkpt>
      <trkpt lat="47.25977" lon="3.86992">
        <ele>481</ele>
        <time>2016-07-19T18:24:37.000Z</time>
      </trkpt>
      <trkpt lat="47.25928" lon="3.87175">
        <ele>464</ele>
        <time>2016-07-19T18:24:37.000Z</time>
      </trkpt>
      <trkpt lat="47.25888" lon="3.87313">
        <ele>459</ele>
        <time>2016-07-19T18:24:37.000Z</time>
      </trkpt>
      <trkpt lat="47.25795" lon="3.87495">
        <ele>485</ele>
        <time>2016-07-19T18:24:37.000Z</time>
      </trkpt>
      <trkpt lat="47.25752" lon="3.87696">
        <ele>493</ele>
        <time>2016-07-19T18:24:37.000Z</time>
      </trkpt>
      <trkpt lat="47.25706" lon="3.87757">
        <ele>490</ele>
        <time>2016-07-19T18:24:37.000Z</time>
      </trkpt>
      <trkpt lat="47.25676" lon="3.87852">
        <ele>492</ele>
        <time>2016-07-19T18:24:37.000Z</time>
      </trkpt>
      <trkpt lat="47.25675" lon="3.87931">
        <ele>495</ele>
        <time>2016-07-19T18:24:37.000Z</time>
      </trkpt>
      <trkpt lat="47.25656" lon="3.88023">
        <ele>492</ele>
        <time>2016-07-19T18:24:37.000Z</time>
      </trkpt>
      <trkpt lat="47.2569" lon="3.8814">
        <ele>479</ele>
        <time>2016-07-19T18:24:37.000Z</time>
      </trkpt>
      <trkpt lat="47.25674" lon="3.88179">
        <ele>471</ele>
        <time>2016-07-19T18:24:37.000Z</time>
      </trkpt>
      <trkpt lat="47.25748" lon="3.88313">
        <ele>465</ele>
        <time>2016-07-19T18:24:37.000Z</time>
      </trkpt>
      <trkpt lat="47.25754" lon="3.88322">
        <ele>465</ele>
        <time>2016-07-19T18:24:37.000Z</time>
      </trkpt>
      <trkpt lat="47.25759" lon="3.88376">
        <ele>462</ele>
        <time>2016-07-19T18:24:37.000Z</time>
      </trkpt>
      <trkpt lat="47.25745" lon="3.88426">
        <ele>460</ele>
        <time>2016-07-19T18:24:37.000Z</time>
      </trkpt>
      <trkpt lat="47.25701" lon="3.88487">
        <ele>458</ele>
        <time>2016-07-19T18:24:37.000Z</time>
      </trkpt>
      <trkpt lat="47.25695" lon="3.88632">
        <ele>466</ele>
        <time>2016-07-19T18:24:37.000Z</time>
      </trkpt>
      <trkpt lat="47.25688" lon="3.88629">
        <ele>466</ele>
        <time>2016-07-19T18:24:37.000Z</time>
      </trkpt>
      <trkpt lat="47.25639" lon="3.891">
        <ele>487</ele>
        <time>2016-07-19T18:24:37.000Z</time>
      </trkpt>
      <trkpt lat="47.25604" lon="3.8933">
        <ele>487</ele>
        <time>2016-07-19T18:24:37.000Z</time>
      </trkpt>
      <trkpt lat="47.25568" lon="3.89554">
        <ele>477</ele>
        <time>2016-07-19T18:24:37.000Z</time>
      </trkpt>
      <trkpt lat="47.25403" lon="3.89876">
        <ele>459</ele>
        <time>2016-07-19T18:24:37.000Z</time>
      </trkpt>
      <trkpt lat="47.25354" lon="3.9004">
        <ele>452</ele>
        <time>2016-07-19T18:24:37.000Z</time>
      </trkpt>
      <trkpt lat="47.25337" lon="3.90155">
        <ele>444</ele>
        <time>2016-07-19T18:24:37.000Z</time>
      </trkpt>
      <trkpt lat="47.25351" lon="3.90393">
        <ele>440</ele>
        <time>2016-07-19T18:24:37.000Z</time>
      </trkpt>
      <trkpt lat="47.25351" lon="3.90565">
        <ele>441</ele>
        <time>2016-07-19T18:24:37.000Z</time>
      </trkpt>
      <trkpt lat="47.25334" lon="3.90687">
        <ele>443</ele>
        <time>2016-07-19T18:24:37.000Z</time>
      </trkpt>
      <trkpt lat="47.25336" lon="3.90865">
        <ele>442</ele>
        <time>2016-07-19T18:24:37.000Z</time>
      </trkpt>
      <trkpt lat="47.25314" lon="3.91016">
        <ele>441</ele>
        <time>2016-07-19T18:24:37.000Z</time>
      </trkpt>
      <trkpt lat="47.25285" lon="3.91128">
        <ele>440</ele>
        <time>2016-07-19T18:24:37.000Z</time>
      </trkpt>
      <trkpt lat="47.25267" lon="3.91151">
        <ele>439</ele>
        <time>2016-07-19T18:24:37.000Z</time>
      </trkpt>
      <trkpt lat="47.25281" lon="3.91286">
        <ele>430</ele>
        <time>2016-07-19T18:24:37.000Z</time>
      </trkpt>
      <trkpt lat="47.25287" lon="3.91366">
        <ele>429</ele>
        <time>2016-07-19T18:24:37.000Z</time>
      </trkpt>
      <trkpt lat="47.25248" lon="3.91418">
        <ele>434</ele>
        <time>2016-07-19T18:24:37.000Z</time>
      </trkpt>
      <trkpt lat="47.25265" lon="3.91435">
        <ele>434</ele>
        <time>2016-07-19T18:24:37.000Z</time>
      </trkpt>
      <trkpt lat="47.25249" lon="3.91503">
        <ele>436</ele>
        <time>2016-07-19T18:24:37.000Z</time>
      </trkpt>
      <trkpt lat="47.25255" lon="3.91553">
        <ele>437</ele>
        <time>2016-07-19T18:24:37.000Z</time>
      </trkpt>
      <trkpt lat="47.25224" lon="3.91655">
        <ele>445</ele>
        <time>2016-07-19T18:24:37.000Z</time>
      </trkpt>
      <trkpt lat="47.2521" lon="3.91724">
        <ele>447</ele>
        <time>2016-07-19T18:24:37.000Z</time>
      </trkpt>
      <trkpt lat="47.2527" lon="3.91934">
        <ele>438</ele>
        <time>2016-07-19T18:24:37.000Z</time>
      </trkpt>
      <trkpt lat="47.25335" lon="3.92068">
        <ele>422</ele>
        <time>2016-07-19T18:24:37.000Z</time>
      </trkpt>
      <trkpt lat="47.25346" lon="3.92286">
        <ele>407</ele>
        <time>2016-07-19T18:24:37.000Z</time>
      </trkpt>
      <trkpt lat="47.25361" lon="3.92333">
        <ele>407</ele>
        <time>2016-07-19T18:24:37.000Z</time>
      </trkpt>
      <trkpt lat="47.25448" lon="3.92517">
        <ele>404</ele>
        <time>2016-07-19T18:24:37.000Z</time>
      </trkpt>
      <trkpt lat="47.25554" lon="3.92563">
        <ele>394</ele>
        <time>2016-07-19T18:24:37.000Z</time>
      </trkpt>
      <trkpt lat="47.2558" lon="3.9261">
        <ele>398</ele>
        <time>2016-07-19T18:24:37.000Z</time>
      </trkpt>
      <trkpt lat="47.25593" lon="3.9265">
        <ele>403</ele>
        <time>2016-07-19T18:24:37.000Z</time>
      </trkpt>
      <trkpt lat="47.25638" lon="3.92668">
        <ele>410</ele>
        <time>2016-07-19T18:24:37.000Z</time>
      </trkpt>
      <trkpt lat="47.25708" lon="3.92759">
        <ele>426</ele>
        <time>2016-07-19T18:24:37.000Z</time>
      </trkpt>
      <trkpt lat="47.25793" lon="3.92792">
        <ele>434</ele>
        <time>2016-07-19T18:24:37.000Z</time>
      </trkpt>
      <trkpt lat="47.25941" lon="3.9303">
        <ele>447</ele>
        <time>2016-07-19T18:24:37.000Z</time>
      </trkpt>
      <trkpt lat="47.26038" lon="3.93129">
        <ele>434</ele>
        <time>2016-07-19T18:24:37.000Z</time>
      </trkpt>
      <trkpt lat="47.26172" lon="3.93094">
        <ele>433</ele>
        <time>2016-07-19T18:24:37.000Z</time>
      </trkpt>
      <trkpt lat="47.2617" lon="3.93338">
        <ele>420</ele>
        <time>2016-07-19T18:24:37.000Z</time>
      </trkpt>
      <trkpt lat="47.26194" lon="3.93408">
        <ele>417</ele>
        <time>2016-07-19T18:24:37.000Z</time>
      </trkpt>
      <trkpt lat="47.26182" lon="3.93656">
        <ele>410</ele>
        <time>2016-07-19T18:24:37.000Z</time>
      </trkpt>
    </trkseg>
  </trk>
</gpx>